GOES 10 1 24786U 97019A 10072.43479973 .00000053 00000-0 10000-3 0 3636 2 24786 4.1907 69.7655 0003939 19.4351 98.6802 0.99070869 47197 SARSAT 7 (NOAA 15) 1 25338U 98030A 10073.49190915 .00000174 00000-0 93228-4 0 3028 2 25338 98.6118 62.1469 0010597 356.2842 3.8250 14.24812475615262 GOES 11 1 26352U 00022A 10072.68446647 .00000084 00000-0 10000-3 0 7463 2 26352 0.1879 86.0837 0001403 226.5429 329.2948 1.00272154 36104 SARSAT 8 (NOAA 16) 1 26536U 00055A 10073.45213566 .00000302 00000-0 18846-3 0 7808 2 26536 99.1760 88.6658 0009852 240.6034 119.4170 14.12550673488456 GPS BIIR-07 (DASS) 1 26690U 01004A 10072.65297228 .00000003 00000-0 10000-3 0 6375 2 26690 53.7641 268.6025 0111320 226.2809 132.8076 2.00563412 66830 GOES 12 1 26871U 01031A 10073.34230742 -.00000256 00000-0 00000+0 0 4847 2 26871 0.3212 86.7985 0003083 313.9228 179.7737 1.00278801 31719 SARSAT 9 (NOAA 17) 1 27453U 02032A 10073.28945324 -.00000038 00000-0 14583-5 0 7846 2 27453 98.4433 127.5039 0012553 58.0700 302.1703 14.24138295401197 MSG-1 1 27509U 02040B 10073.08285498 .00000056 00000-0 10000-3 0 4679 2 27509 0.5177 28.0033 0000992 199.2217 343.3623 1.00271586 27702 GPS BIIR-08 (DASS) 1 27663U 03005A 10073.00481584 .00000040 00000-0 10000-3 0 172 2 27663 55.6500 88.7097 0059965 342.8071 17.0423 2.00558190 52199 INSAT 3A 1 27714U 03013A 10069.93247422 .00000000 00000-0 10000-3 0 363 2 27714 0.0524 263.1744 0003917 69.5470 264.8343 1.00263323 24468 GPS BIIR-11 (DASS) 1 28190U 04009A 10073.14497821 .00000011 00000-0 10000-3 0 4711 2 28190 54.8748 151.6280 0062540 348.0688 11.8366 2.00559923 43866 GPS BIIR-12 (DASS) 1 28361U 04023A 10073.43458201 -.00000069 00000-0 10000-3 0 2945 2 28361 55.4931 327.6482 0064303 176.4795 183.6356 2.00558535 41950 GPS BIIR-13 (DASS) 1 28474U 04045A 10073.43386720 -.00000014 00000-0 10000-3 0 1769 2 28474 53.8692 206.3231 0093258 171.8512 188.2594 2.00550401 39319 SARSAT 10 (NOAA 18) 1 28654U 05018A 10073.37393202 -.00000052 00000-0 -40438-5 0 2692 2 28654 98.9402 19.9548 0013982 324.4554 35.5682 14.11335901248062 GPS IIR-14M (DASS) 1 28874U 05038A 10072.28895025 .00000003 00000-0 10000-3 0 4390 2 28874 55.0104 148.4937 0053114 214.6086 145.0979 2.00575543 32712 MSG-2 1 28912U 05049B 10071.90606069 -.00000012 00000-0 00000-0 0 6299 2 28912 0.2141 75.5823 0000180 260.3967 160.5473 1.00277798 15546 GOES 13 1 29155U 06018A 10073.24210882 -.00000174 00000-0 99999-4 0 178 2 29155 0.3834 265.9337 0002323 228.7331 29.0338 1.00404775 13965 SARSAT 11 (METOP-A) 1 29499U 06044A 10073.68284284 .00000020 00000-0 29206-4 0 581 2 29499 98.6837 134.7747 0000747 106.5719 253.5528 14.21499618176443 GPS IIR-16M (DASS) 1 29601U 06052A 10072.34173710 .00000038 00000-0 10000-3 0 8104 2 29601 55.5758 87.7417 0034872 325.3164 34.5272 2.00555572 24322 GPS IIR-17M (DASS) 1 32260U 07047A 10072.14138919 -.00000075 00000-0 00000+0 0 5423 2 32260 54.6836 326.3253 0024308 338.8852 21.0636 2.00557129 17710 GPS IIR-18M (DASS) 1 32384U 07062A 10073.46290595 .00000019 00000-0 10000-3 0 5693 2 32384 55.0257 148.9190 0031722 282.8170 76.9006 2.00550110 16460 SARSAT 12 (NOAA 19) 1 33591U 09005A 10073.34134679 .00000039 00000-0 45451-4 0 4689 2 33591 98.7795 17.5182 0013808 194.4729 165.6050 14.11032163 56532 COSPAS C11 (STERKH 1) 1 35636U 09039B 10073.49728010 .00000138 00000-0 10000-3 0 2232 2 35636 82.9550 207.5454 0019357 324.6324 35.3548 13.89446883 32816 COSPAS C12 (STERKH 2) 1 35866U 09049B 10073.70633164 .00000178 00000-0 10000-3 0 1656 2 35866 98.7714 128.2850 0002513 282.4163 77.6693 14.22310445 25303